Harlan, KY

3:37 AM EDT on May 23, 2018 (GMT -0400)
Harlan

Weather History for KI35 - September, 2014

Change the Weather History Date:

Tuesday, September 30, 2014

  Actual Average (KLOZ) Record (KLOZ)
Temperature  
Mean Temperature 68 °F -  
Max Temperature 80 °F 74 °F 87 °F (1971)
Min Temperature 55 °F 50 °F 34 °F (1967)
Cooling Degree Days 4    
Growing Degree Days 18 (Base 50)    
Moisture  
Dew Point 56 °F    
Average Humidity 79    
Maximum Humidity 100    
Minimum Humidity 30    
Precipitation  
Precipitation 0.00 in - - ()
Sea Level Pressure  
Sea Level Pressure 29.98 in    
Wind  
Wind Speed 1 mph (North)    
Max Wind Speed 12 mph    
Max Gust Speed 16 mph    
Visibility 6 miles    
Events      
Averages and records for this station are not official NWS values.
T = Trace of Precipitation, MM = Missing Value Source: NWS Daily Summary

Daily Weather History Graph

Daily Weather History Graph

Search for Another Location

Airport or City:

Astronomy

Sep. 30, 2014 Rise Set
Actual Time 7:27 AM EDT 7:18 PM EDT
Civil Twilight 7:02 AM EDT 7:44 PM EDT
Nautical Twilight 6:31 AM EDT 8:14 PM EDT
Astronomical Twilight 6:01 AM EDT 8:44 PM EDT
Moon 1:28 PM EDT (9/30) 11:54 PM EDT (9/30)
Length of Visible Light 12h 42m
Length of Day
11h 50m
Waxing Crescent, 38% of the Moon is Illuminated
Sep 30
Waxing Crescent
Oct 1
First Quarter
Oct 8
Full
Oct 15
Last Quarter
Oct 23
New

Hourly Weather History & Observations

Time (EDT) Temp. Dew Point Humidity Pressure Visibility Wind Dir Wind Speed Gust Speed Precip Events Conditions
12:15 AM 60.8 °F 60.8 °F 100% 30.00 in 0.2 mi Calm Calm - N/A   Overcast
12:35 AM 60.8 °F 60.8 °F 100% 30.00 in 0.8 mi Calm Calm - N/A   Overcast
12:55 AM 60.8 °F 60.8 °F 100% 30.00 in 0.2 mi Calm Calm - N/A   Overcast
1:15 AM 59.0 °F 59.0 °F 100% 30.00 in 0.2 mi Calm Calm - N/A   Overcast
1:35 AM 59.0 °F 59.0 °F 100% 30.00 in 0.2 mi Calm Calm - N/A   Overcast
1:55 AM 59.0 °F 59.0 °F 100% 30.00 in 0.2 mi Calm Calm - N/A   Overcast
2:15 AM 59.0 °F 59.0 °F 100% 29.99 in 0.2 mi Calm Calm - N/A   Overcast
2:35 AM 59.0 °F 59.0 °F 100% 30.00 in 0.2 mi Calm Calm - N/A   Overcast
2:55 AM 59.0 °F 59.0 °F 100% 29.99 in 0.2 mi Calm Calm - N/A   Overcast
3:15 AM 59.0 °F 59.0 °F 100% 29.98 in 0.2 mi Calm Calm - N/A   Overcast
3:35 AM 59.0 °F 59.0 °F 100% 29.98 in 0.2 mi Calm Calm - N/A   Overcast
3:55 AM 59.0 °F 59.0 °F 100% 29.98 in 0.2 mi Calm Calm - N/A   Overcast
4:15 AM 59.0 °F 59.0 °F 100% 29.98 in 0.2 mi Calm Calm - N/A   Overcast
4:35 AM 59.0 °F 59.0 °F 100% 29.98 in 0.2 mi Calm Calm - N/A   Overcast
4:55 AM 59.0 °F 59.0 °F 100% 29.98 in 0.2 mi Calm Calm - N/A   Overcast
5:15 AM 59.0 °F 59.0 °F 100% 29.99 in 0.2 mi Calm Calm - N/A   Overcast
5:35 AM 59.0 °F 59.0 °F 100% 29.98 in 0.2 mi Calm Calm - N/A   Overcast
5:55 AM 59.0 °F 57.2 °F 94% 29.99 in 0.2 mi Calm Calm - N/A   Overcast
6:15 AM 59.0 °F 57.2 °F 94% 29.99 in 0.2 mi Calm Calm - N/A   Overcast
6:35 AM 59.0 °F 57.2 °F 94% 29.99 in 0.2 mi Calm Calm - N/A   Overcast
6:55 AM 57.2 °F 57.2 °F 100% 30.00 in 0.2 mi Calm Calm - N/A   Overcast
7:15 AM 57.2 °F 57.2 °F 100% 30.00 in 0.2 mi Calm Calm - N/A   Overcast
7:35 AM 57.2 °F 57.2 °F 100% 30.00 in 0.2 mi Calm Calm - N/A   Overcast
7:55 AM 57.2 °F 57.2 °F 100% 30.01 in 0.2 mi Calm Calm - N/A   Overcast
8:15 AM 57.2 °F 57.2 °F 100% 30.01 in 0.2 mi Calm Calm - N/A   Overcast
8:35 AM 57.2 °F 57.2 °F 100% 30.01 in 0.2 mi Calm Calm - N/A   Overcast
8:55 AM 57.2 °F 57.2 °F 100% 30.01 in 0.2 mi East 6.9 mph - N/A   Overcast
9:15 AM 57.2 °F 57.2 °F 100% 30.01 in 0.2 mi Calm Calm - N/A   Overcast
9:35 AM 59.0 °F 57.2 °F 94% 30.01 in 0.2 mi Calm Calm - N/A   Overcast
9:55 AM 59.0 °F 57.2 °F 94% 30.02 in 0.2 mi Calm Calm - N/A   Overcast
10:15 AM 59.0 °F 59.0 °F 100% 30.01 in 0.5 mi Calm Calm - N/A   Overcast
10:35 AM 59.0 °F 59.0 °F 100% 30.01 in 1.2 mi Calm Calm - N/A   Overcast
10:55 AM 60.8 °F 60.8 °F 100% 30.01 in 10.0 mi Calm Calm - N/A   Overcast
11:15 AM 60.8 °F 60.8 °F 100% 30.01 in 10.0 mi Calm Calm - N/A   Overcast
11:35 AM 62.6 °F 62.6 °F 100% 30.00 in 10.0 mi Calm Calm - N/A   Scattered Clouds
11:55 AM 69.8 °F 60.8 °F 73% 30.00 in 10.0 mi Calm Calm - N/A   Scattered Clouds
12:15 PM 71.6 °F 59.0 °F 64% 29.99 in 10.0 mi North - - N/A   Scattered Clouds
12:35 PM 73.4 °F 59.0 °F 61% 29.99 in 10.0 mi North - - N/A   Mostly Cloudy
12:55 PM 77.0 °F 53.6 °F 44% 29.98 in 10.0 mi NW 5.8 mph - N/A   Mostly Cloudy
1:15 PM 77.0 °F 51.8 °F 41% 29.98 in 10.0 mi North 5.8 mph - N/A   Scattered Clouds
1:35 PM 77.0 °F 50.0 °F 39% 29.97 in 10.0 mi Calm Calm - N/A   Clear
1:55 PM 78.8 °F 48.2 °F 34% 29.96 in 10.0 mi SW 3.5 mph - N/A   Clear
2:15 PM 78.8 °F 48.2 °F 34% 29.95 in 10.0 mi North 6.9 mph - N/A   Clear
2:35 PM 78.8 °F 46.4 °F 32% 29.95 in 10.0 mi North 5.8 mph - N/A   Clear
2:55 PM 78.8 °F 46.4 °F 32% 29.94 in 10.0 mi East 4.6 mph - N/A   Clear
3:15 PM 78.8 °F 46.4 °F 32% 29.93 in 10.0 mi Calm Calm - N/A   Clear
3:35 PM 78.8 °F 48.2 °F 34% 29.93 in 10.0 mi Calm Calm - N/A   Clear
3:55 PM 78.8 °F 46.4 °F 32% 29.93 in 10.0 mi North 3.5 mph - N/A   Clear
4:15 PM 80.6 °F 46.4 °F 30% 29.93 in 10.0 mi WNW 5.8 mph - N/A   Clear
4:35 PM 80.6 °F 48.2 °F 32% 29.93 in 10.0 mi NNW 4.6 mph - N/A   Clear
4:55 PM 78.8 °F 46.4 °F 32% 29.93 in 10.0 mi NNW 8.1 mph 16.1 mph N/A   Clear
5:15 PM 77.0 °F 48.2 °F 36% 29.92 in 10.0 mi North 9.2 mph - N/A   Clear
5:35 PM 77.0 °F 50.0 °F 39% 29.93 in 10.0 mi North 5.8 mph - N/A   Clear
5:55 PM 77.0 °F 50.0 °F 39% 29.93 in 10.0 mi North 10.4 mph - N/A   Clear
6:15 PM 75.2 °F 51.8 °F 44% 29.93 in 10.0 mi North 10.4 mph - N/A   Clear
6:35 PM 73.4 °F 53.6 °F 50% 29.93 in 10.0 mi NNE 11.5 mph - N/A   Clear
6:55 PM 69.8 °F 53.6 °F 56% 29.94 in 10.0 mi North - - N/A   Clear
7:15 PM 69.8 °F 53.6 °F 56% 29.94 in 10.0 mi Calm Calm - N/A   Clear
7:35 PM 68.0 °F 53.6 °F 60% 29.95 in 10.0 mi Calm Calm - N/A   Clear
8:15 PM 62.6 °F 55.4 °F 77% 29.96 in 10.0 mi Calm Calm - N/A   Clear
8:35 PM 62.6 °F 55.4 °F 77% 29.96 in 10.0 mi Calm Calm - N/A   Clear
8:55 PM 60.8 °F 59.0 °F 94% 29.96 in 10.0 mi Calm Calm - N/A   Clear
9:15 PM 60.8 °F 59.0 °F 94% 29.97 in 10.0 mi Calm Calm - N/A   Clear
9:35 PM 59.0 °F 59.0 °F 100% 29.97 in 10.0 mi Calm Calm - N/A   Clear
9:55 PM 62.6 °F 62.6 °F 100% 30.01 in 10.0 mi Calm Calm - N/A   Clear
10:15 PM 60.8 °F 60.8 °F 100% 30.01 in 10.0 mi Calm Calm - N/A   Clear
10:35 PM 60.8 °F 60.8 °F 100% 30.01 in 10.0 mi Calm Calm - N/A   Clear
10:55 PM 59.0 °F 59.0 °F 100% 29.99 in 10.0 mi Calm Calm - N/A   Clear
11:15 PM 57.2 °F 57.2 °F 100% 29.99 in 10.0 mi Calm Calm - N/A   Clear
11:55 PM 55.4 °F 55.4 °F 100% 29.99 in 7.0 mi Calm Calm - N/A   Clear